Latest Weather Observations for Double Island Point

IDQ60901

Issued at 7:31 am EST Sunday 22 January 2017 (issued every 10 minutes, with the page automatically refreshed every 10 minutes)

About weather observations | Map of Brisbane area stations | Latest observations for Brisbane area | Other Formats
Station Details ID: 040068 Name: DOUBLE ISLAND POINT LIGHTHOUSE Lat: -25.93 Lon: 153.19 Height: 95.64 m
Data from the previous 72 hours. | See also: Recent months at Double Island Point
Date/Time
EST
Temp
°C
App
Temp
°C
Dew
Point
°C
Rel
Hum
%
Delta-T
°C
Wind Press
QNH
hPa
Press
MSL
hPa
Rain since
9am
mm
Dir  Spd
km/h
Gust
km/h
Spd
kts
Gust
kts
22/07:30am 24.9 21.1 22.4 86 1.7 SE 46 52 25 28 1014.3 1013.7 18.8
22/07:00am 24.6 21.0 22.8 90 1.2 SE 46 54 25 29 1014.4 1013.8 18.8
22/06:30am 24.5 20.7 22.4 88 1.4 SE 46 54 25 29 1014.3 1013.7 18.8
22/06:00am 24.3 20.3 22.7 91 1.1 SE 48 56 26 30 1013.8 1013.2 18.8
22/05:30am 24.3 20.9 23.1 93 0.8 SE 46 54 25 29 1013.5 1012.9 18.8
22/05:00am 24.3 21.3 23.8 97 0.3 SE 46 56 25 30 1012.8 1012.3 18.8
22/04:30am 24.3 21.1 24.1 99 0.1 SE 48 56 26 30 1012.2 1011.7 18.8
22/04:16am 24.0 20.2 23.8 99 0.1 SE 50 59 27 32 1012.1 1011.6 18.8
22/04:00am 23.9 22.7 23.9 100 0.0 SE 37 46 20 25 1012.1 1011.6 18.8
22/03:30am 24.1 21.6 24.1 100 0.0 SE 44 50 24 27 1011.5 1011.0 18.8
22/03:00am 23.8 22.1 23.8 100 0.0 SE 39 50 21 27 1011.3 1010.8 18.8
22/02:30am 23.2 19.1 23.2 100 0.0 SE 50 61 27 33 1011.5 1011.0 18.8
22/02:00am 22.9 19.4 22.9 100 0.0 SSE 46 54 25 29 1011.6 1011.1 18.8
22/01:54am 22.9 20.3 22.9 100 0.0 SE 41 54 22 29 1011.7 1011.2 18.8
22/01:30am 22.8 21.9 22.8 100 0.0 SE 32 35 17 19 1011.9 1011.4 18.8
22/01:00am 22.6 21.4 22.6 100 0.0 SE 33 41 18 22 1012.0 1011.5 18.8
22/12:30am 22.0 18.6 22.0 100 0.0 ESE 43 50 23 27 1012.0 1011.5 18.8
22/12:00am 21.5 17.6 21.5 100 0.0 ESE 44 54 24 29 1012.5 1012.0 17.2
 
Date/Time
EST
Temp
°C
App
Temp
°C
Dew
Point
°C
Rel
Hum
%
Delta-T
°C
Wind Press
QNH
hPa
Press
MSL
hPa
Rain since
9am
mm
Dir  Spd
km/h
Gust
km/h
Spd
kts
Gust
kts
21/11:30pm 21.8 16.5 21.8 100 0.0 SE 52 61 28 33 1012.3 1011.8 11.0
21/11:00pm 22.6 18.2 22.6 100 0.0 SE 50 57 27 31 1012.5 1012.0 4.4
21/10:30pm 22.6 17.4 22.6 100 0.0 SE 54 63 29 34 1012.6 1012.1 0.8
21/10:00pm 22.7 17.5 22.7 100 0.0 SE 54 63 29 34 1012.2 1011.7 0.6
21/09:30pm 22.7 17.9 22.7 100 0.0 SSE 52 65 28 35 1012.0 1011.5 0.4
21/09:00pm 23.1 19.7 23.1 100 0.0 SSE 46 56 25 30 1011.7 1011.2 0.2
21/08:30pm 24.4 20.1 24.2 99 0.1 SE 54 61 29 33 1011.0 1010.5 0.2
21/08:00pm 25.0 22.2 24.8 99 0.1 SE 48 56 26 30 1010.8 1010.3 0.2
21/07:30pm 25.6 24.6 24.9 96 0.5 SE 39 46 21 25 1010.7 1010.2 0.2
21/07:00pm 25.7 22.5 24.7 94 0.7 SE 50 57 27 31 1009.8 1009.3 0.2
21/06:30pm 25.8 23.1 25.5 98 0.2 SE 50 57 27 31 1009.1 1008.6 0.2
21/06:00pm 25.8 22.9 25.8 100 0.0 SE 52 61 28 33 1008.8 1008.3 0.2
21/05:30pm 26.2 24.7 26.2 100 0.0 SE 46 56 25 30 1007.9 1007.4 0.2
21/05:27pm 26.2 25.3 26.2 100 0.0 SE 43 54 23 29 1007.8 1007.3 0.2
21/05:12pm 26.5 28.1 25.8 96 0.5 SE 28 35 15 19 1007.6 1007.1 0.2
21/05:00pm 26.6 31.5 26.4 99 0.1 SE 13 17 7 9 1007.3 1006.8 0.2
21/04:30pm 27.6 32.9 25.0 86 1.8 NNW 6 11 3 6 1007.0 1006.5 0.0
21/04:00pm 27.8 33.0 24.8 84 2.1 NW 6 13 3 7 1006.6 1006.1 0.0
21/03:30pm 28.9 32.6 24.5 77 3.1 N 13 19 7 10 1006.7 1006.2 0.0
21/03:00pm 29.0 32.4 24.1 75 3.4 N 13 20 7 11 1006.1 1005.5 0.0
21/02:30pm 31.5 35.2 24.6 67 4.9 N 13 24 7 13 1006.3 1005.7 0.0
21/02:00pm 31.7 36.2 24.6 66 5.0 N 9 13 5 7 1006.3 1005.7 0.0
21/01:30pm 29.9 35.2 25.0 75 3.5 NNE 6 9 3 5 1006.5 1005.9 0.0
21/01:00pm 29.8 34.4 24.7 74 3.6 N 9 17 5 9 1006.7 1006.2 0.0
21/12:30pm 29.7 34.4 23.9 71 4.0 NE 6 9 3 5 1006.8 1006.3 0.0
21/12:00pm 31.4 36.8 24.5 67 4.9 N 4 7 2 4 1007.2 1006.7 0.0
21/11:30am 32.6 35.2 24.6 62 5.6 NNW 19 24 10 13 1007.1 1006.6 0.0
21/11:00am 31.9 36.8 24.7 65 5.1 NNW 7 11 4 6 1007.5 1007.0 0.0
21/10:30am 30.5 31.0 22.7 63 5.3 NNW 24 30 13 16 1007.7 1007.2 0.0
21/10:00am 28.9 29.4 22.6 69 4.3 NW 24 28 13 15 1007.9 1007.4 0.0
21/09:30am 28.7 28.7 23.1 71 3.8 NNW 28 35 15 19 1007.8 1007.3 0.0
21/09:00am 27.9 27.0 23.1 75 3.3 NW 33 43 18 23 1007.6 1007.1 0.0
21/08:30am 27.8 27.0 23.0 75 3.3 NNW 32 39 17 21 1007.7 1007.2 0.0
21/08:00am 27.4 27.4 23.0 77 3.0 NW 28 35 15 19 1007.9 1007.4 0.0
21/07:30am 27.0 26.5 22.8 78 2.9 NW 30 37 16 20 1007.9 1007.4 0.0
21/07:00am 26.4 26.2 22.7 80 2.5 NW 28 35 15 19 1007.8 1007.3 0.0
21/06:30am 26.3 26.4 23.2 83 2.1 NW 28 37 15 20 1007.7 1007.2 0.0
21/06:00am 26.6 25.8 23.1 81 2.4 NNW 32 41 17 22 1007.2 1006.7 0.0
21/05:30am 26.7 25.3 22.3 77 3.0 NW 33 46 18 25 1006.5 1005.9 0.0
21/05:00am 26.7 23.4 22.3 77 3.0 NW 43 52 23 28 1005.8 1005.2 0.0
21/04:30am 26.5 22.9 22.1 77 3.0 NNW 44 59 24 32 1005.3 1004.7 0.0
21/04:00am 26.2 23.8 23.9 87 1.6 NNW 43 56 23 30 1005.0 1004.4 0.0
21/03:30am 26.1 24.0 24.3 90 1.2 NW 43 56 23 30 1005.2 1004.6 0.0
21/03:00am 26.3 24.2 23.8 86 1.7 NW 41 52 22 28 1005.2 1004.6 0.0
21/02:30am 26.7 25.1 24.5 88 1.5 NNW 41 54 22 29 1005.0 1004.4 0.0
21/02:02am 26.8 24.3 24.1 85 1.9 NNW 44 63 24 34 1004.8 1004.2 0.0
21/02:00am 26.8 24.5 24.1 85 1.9 NNW 43 56 23 30 1005.0 1004.4 0.0
21/01:30am 26.9 24.9 23.2 80 2.5 NNW 39 48 21 26 1005.2 1004.6 0.0
21/01:00am 26.9 24.8 22.3 76 3.1 NNW 37 46 20 25 1005.1 1004.5 0.0
21/12:30am 27.1 24.7 21.8 73 3.6 NNW 37 44 20 24 1005.1 1004.5 0.0
21/12:00am 27.3 24.3 21.3 69 4.0 NNW 39 48 21 26 1005.3 1004.7 0.0
 
Date/Time
EST
Temp
°C
App
Temp
°C
Dew
Point
°C
Rel
Hum
%
Delta-T
°C
Wind Press
QNH
hPa
Press
MSL
hPa
Rain since
9am
mm
Dir  Spd
km/h
Gust
km/h
Spd
kts
Gust
kts
20/11:30pm 27.5 25.1 21.1 68 4.3 NNW 35 43 19 23 1005.9 1005.3 0.0
20/11:00pm 27.5 25.5 21.8 71 3.8 NNW 35 46 19 25 1006.2 1005.6 0.0
20/10:30pm 27.4 25.7 21.4 70 4.0 NNW 32 39 17 21 1006.6 1006.1 0.0
20/10:00pm 27.4 26.1 22.1 73 3.6 NNW 32 39 17 21 1006.7 1006.2 0.0
20/09:30pm 27.3 26.1 23.3 79 2.7 NNW 35 43 19 23 1006.4 1005.8 0.0
20/09:00pm 27.1 27.7 24.2 84 2.0 NNW 28 35 15 19 1005.8 1005.2 0.0
20/08:30pm 27.2 28.4 24.5 85 1.9 NNW 26 39 14 21 1006.0 1005.4 0.0
20/08:00pm 27.4 28.6 24.5 84 2.0 NNW 26 35 14 19 1006.0 1005.4 0.0
20/07:30pm 27.8 29.5 24.6 83 2.2 NNW 24 32 13 17 1005.5 1004.9 0.0
20/07:00pm 28.1 31.5 24.7 82 2.4 NNW 15 26 8 14 1005.5 1004.9 0.0
20/06:30pm 28.8 33.0 24.8 79 2.8 N 11 15 6 8 1005.1 1004.5 0.0
20/06:00pm 29.7 34.8 25.0 76 3.3 NNE 7 11 4 6 1005.1 1004.5 0.0
20/05:30pm 30.2 35.6 25.5 76 3.3 N 7 15 4 8 1004.6 1004.0 0.0
20/05:00pm 30.2 35.1 25.9 78 3.1 NNE 11 17 6 9 1004.3 1003.7 0.0
20/04:30pm 30.3 35.1 26.2 79 2.9 NNW 13 22 7 12 1004.3 1003.7 0.0
20/04:00pm 30.3 32.2 26.7 81 2.6 NNE 30 39 16 21 1004.1 1003.5 0.0
20/03:30pm 30.7 32.7 26.4 78 3.1 NNE 28 35 15 19 1004.6 1004.0 0.0
20/03:00pm 31.0 33.4 26.3 76 3.4 NNE 26 33 14 18 1005.2 1004.6 0.0
20/02:30pm 31.2 33.0 26.0 74 3.7 NNE 28 33 15 18 1005.6 1005.0 0.0
20/02:00pm 31.9 34.1 26.0 71 4.2 NNE 26 33 14 18 1006.3 1005.7 0.0
20/01:30pm 32.3 34.8 25.9 69 4.6 NNE 24 32 13 17 1007.0 1006.5 0.0
20/01:00pm 32.1 34.8 25.7 69 4.6 NNE 22 28 12 15 1007.5 1007.0 0.0
20/12:30pm 32.0 34.9 25.1 67 4.9 NNE 19 24 10 13 1007.9 1007.4 0.0
20/12:00pm 33.3 37.4 25.8 65 5.4 NNE 15 19 8 10 1008.2 1007.7 0.0
20/11:30am 32.7 36.9 26.0 68 4.8 NNE 15 19 8 10 1008.4 1007.9 0.0
20/11:00am 32.0 36.2 25.3 67 4.8 NNE 13 17 7 9 1008.8 1008.3 0.0
20/10:30am 31.5 37.0 25.6 71 4.2 N 7 13 4 7 1009.4 1008.9 0.0
20/10:00am 30.7 35.8 25.5 74 3.7 NNE 9 11 5 6 1009.6 1009.1 0.0
20/09:30am 29.5 34.6 25.5 79 2.8 E 9 11 5 6 1009.9 1009.4 0.0
20/09:00am 28.1 32.5 24.5 81 2.5 SE 9 13 5 7 1009.8 1009.3 0.0
20/08:30am 27.0 30.4 24.6 87 1.7 SSE 15 19 8 10 1009.7 1009.2 0.0
20/08:00am 27.0 30.2 25.0 89 1.4 SSE 17 22 9 12 1009.9 1009.4 0.0
20/07:30am 26.2 29.9 25.2 94 0.7 S 15 19 8 10 1009.9 1009.4 0.0
20/07:00am 25.6 28.5 24.4 93 0.8 S 17 20 9 11 1009.7 1009.2 0.0
20/06:30am 25.6 28.5 24.4 93 0.8 S 17 17 9 9 1009.7 1009.2 0.0
20/06:00am 24.8 27.6 24.3 97 0.3 S 17 19 9 10 1009.7 1009.2 0.0
20/05:30am 24.1 26.7 23.9 99 0.1 S 17 19 9 10 1009.3 1008.8 0.0
20/05:00am 24.2 28.3 24.0 99 0.1 SSE 9 11 5 6 1009.1 1008.6 0.0
20/04:30am 24.3 28.1 24.0 98 0.2 SSE 11 13 6 7 1008.6 1008.1 0.0
20/04:00am 24.5 27.9 24.0 97 0.3 SE 13 15 7 8 1008.6 1008.1 0.0
20/03:30am 24.6 27.8 24.3 98 0.2 SE 15 17 8 9 1008.6 1008.1 0.0
20/03:00am 24.6 27.2 23.9 96 0.5 SSE 17 19 9 10 1008.6 1008.1 0.0
20/02:30am 24.6 26.8 23.9 96 0.5 SE 19 22 10 12 1008.8 1008.3 0.0
20/02:00am 24.8 26.5 24.1 96 0.5 SE 22 24 12 13 1009.0 1008.5 0.0
20/01:30am 24.8 25.6 23.8 94 0.7 SSE 26 30 14 16 1009.2 1008.7 0.0
20/01:00am 25.0 25.3 23.6 92 1.0 SE 28 32 15 17 1009.4 1008.9 0.0
20/12:30am 25.0 25.0 23.8 93 0.8 SE 30 32 16 17 1009.7 1009.2 0.0
20/12:00am 25.1 24.8 24.2 95 0.6 SE 33 37 18 20 1009.8 1009.3 0.0
 
Date/Time
EST
Temp
°C
App
Temp
°C
Dew
Point
°C
Rel
Hum
%
Delta-T
°C
Wind Press
QNH
hPa
Press
MSL
hPa
Rain since
9am
mm
Dir  Spd
km/h
Gust
km/h
Spd
kts
Gust
kts
19/11:30pm 25.0 24.5 23.8 93 0.8 SE 33 37 18 20 1010.2 1009.7 0.0
19/11:00pm 25.1 25.0 24.2 95 0.6 SE 32 35 17 19 1010.2 1009.7 0.0
19/10:30pm 25.1 24.0 24.1 94 0.7 SE 37 43 20 23 1010.2 1009.7 0.0
19/10:00pm 25.1 25.0 24.6 97 0.3 SE 33 39 18 21 1010.5 1010.0 0.0
19/09:30pm 25.2 23.8 24.3 95 0.6 SE 39 43 21 23 1010.2 1009.7 0.0
19/09:00pm 25.3 23.5 24.3 94 0.7 SE 41 44 22 24 1010.2 1009.7 0.0
19/08:30pm 25.3 24.7 24.3 94 0.7 SSE 35 41 19 22 1010.5 1010.0 0.0
19/08:00pm 25.3 24.3 24.3 94 0.7 SSE 37 43 20 23 1010.4 1009.9 0.0
19/07:30pm 25.5 24.0 24.1 92 1.0 SSE 39 43 21 23 1010.3 1009.8 0.0
19/07:00pm 25.4 25.2 24.4 94 0.7 SSE 33 37 18 20 1010.0 1009.5 0.0
19/06:30pm 25.6 24.2 24.2 92 1.0 SE 39 44 21 24 1009.5 1009.0 0.0
19/06:00pm 25.8 24.4 24.2 91 1.1 SE 39 43 21 23 1009.5 1009.0 0.0
19/05:30pm 26.2 24.3 24.1 88 1.5 SE 41 46 22 25 1009.1 1008.6 0.0
19/05:00pm 26.5 24.5 24.5 89 1.4 SE 43 46 23 25 1008.7 1008.2 0.0
19/04:30pm 26.8 24.8 24.5 87 1.6 SE 43 50 23 27 1008.3 1007.8 0.0
19/04:00pm 27.2 26.1 24.7 86 1.7 SE 39 44 21 24 1008.5 1008.0 0.0
19/03:30pm 27.2 26.1 24.7 86 1.7 SE 39 44 21 24 1008.9 1008.4 0.0
19/03:00pm 27.5 26.7 24.6 84 2.0 SSE 37 43 20 23 1009.3 1008.8 0.0
19/02:30pm 28.1 28.2 24.9 83 2.2 SSE 33 39 18 21 1009.6 1009.1 0.0
19/02:00pm 28.2 28.3 25.4 85 2.0 SSE 35 41 19 22 1009.9 1009.4 0.0
19/01:30pm 27.2 26.4 24.7 86 1.7 SSE 37 44 20 24 1010.2 1009.7 0.0
19/01:00pm 29.1 28.8 25.5 81 2.5 SSE 37 46 20 25 1010.3 1009.8 0.0
19/12:30pm 28.3 28.4 25.5 85 2.0 SSE 35 43 19 23 1010.6 1010.1 0.0
19/12:00pm 27.7 26.9 25.3 87 1.7 SSE 39 46 21 25 1010.5 1010.0 0.0
19/11:30am 28.0 28.3 25.8 88 1.6 SSE 35 44 19 24 1010.6 1010.1 0.0
19/11:00am 27.9 28.2 25.7 88 1.6 S 35 43 19 23 1010.8 1010.3 0.0
19/10:30am 27.9 28.0 24.9 84 2.1 S 33 43 18 23 1010.9 1010.4 0.0
19/10:00am 28.7 31.5 25.3 82 2.4 SE 20 28 11 15 1011.1 1010.6 0.0
19/09:30am 29.2 33.2 25.0 78 3.0 ENE 13 24 7 13 1011.1 1010.6 0.0
19/09:00am 30.1 34.3 25.4 76 3.3 NNW 13 19 7 10 1011.0 1010.5 0.0
19/08:30am 28.6 31.4 25.2 82 2.4 NNW 20 28 11 15 1010.9 1010.4 0.0
19/08:00am 27.5 29.2 24.7 85 2.0 NW 24 32 13 17 1011.0 1010.5 0.0

Latest Capital City Observations: Canberra | Sydney | Melbourne | Brisbane | Adelaide | Perth | Hobart | Darwin

Other Formats:

Comma delimited format used in spreadsheet applications
http://www.bom.gov.au/fwo/IDQ60901/IDQ60901.94584.axf

JavaScript Object Notation format (JSON) in row-major order
http://www.bom.gov.au/fwo/IDQ60901/IDQ60901.94584.json